Location: Gniazdowice
(50.2124°N, 20.2673°E)
Time: 22:52:09
(UTC+00:00)

SL-27 R/B - Pass Details

Date: 23 May 2024
Orbit: 327 x 351 km, 74.7° (Epoch: 22 June)

Event Time Altitude Azimuth Distance (km) Brightness Sun altitude
Exits shadow 01:12:33 16° 184° (S) 971 3.6 -11.1°
Maximum altitude 01:14:31 53° 110° (ESE) 413 2.3 -10.9°
Drops below altitude 10° 01:17:13 10° 31° (NNE) 1,264 6.2 -10.7°
Sets 01:19:11 0° 27° (NNE) 2,105 7.7 -10.5°
